Location: Unspecified
(10.5000°N, 0.0000°E)
Time: 03:34:28
(UTC+00:00)

ISS - Pass Details

Date: 25 April 2019
Orbit: 407 x 410 km, 51.6° (Epoch: 21 May)

Event Time Altitude Azimuth Distance (km) Brightness Sun altitude
Exits shadow 04:14:50 34° 7° (N) 685 -2.5 -22.1°
Drops below altitude 10° 04:16:57 10° 26° (NNE) 1,464 -0.4 -21.6°
Sets 04:19:03 0° 31° (NNE) 2,324 0.8 -21.1°
